When you browse on this site, cookies collect data to enhance your experience and personalize the content and advertising you see.
Visit our Privacy Policy to learn more. By continuing to use the site, you agree to this use of cookies and data.
  • In Spain
  • List of Countries
  • For 7 days
  • Water Temperature
  • Satellite Maps
  • Weather Map
  • Weather Widgets
  • user-avatar
    Login

    Hourly Weather Spring Garden

    Today, 22 May, Wednesday

    Time Temperature Precipitation Wind Pressure Humidity
    00:00 +2°C° 0 mm 0 mps 638 mmHg 97%
    01:00 +3°C° 0 mm 1 mps 638 mmHg 97%
    02:00 +2°C° 0 mm 1 mps 638 mmHg 97%
    03:00 +2°C° 0 mm 1 mps 638 mmHg 96%
    04:00 +2°C° 0 mm 1 mps 639 mmHg 96%
    05:00 +3°C° 0 mm 1 mps 639 mmHg 94%
    06:00 +4°C° 0 mm 2 mps 640 mmHg 91%
    07:00 +5°C° 0 mm 2 mps 640 mmHg 89%
    08:00 +7°C° 0 mm 2 mps 641 mmHg 84%
    09:00 +8°C° 0 mm 2 mps 641 mmHg 79%
    10:00 +10°C° 0 mm 3 mps 641 mmHg 75%
    11:00 +10°C° 0.1 mm 2 mps 641 mmHg 77%
    12:00 +10°C° 0.1 mm 2 mps 641 mmHg 79%
    13:00 +10°C° 0.1 mm 2 mps 641 mmHg 80%
    14:00 +12°C° 0.2 mm 2 mps 641 mmHg 79%
    15:00 +11°C° 0.2 mm 3 mps 641 mmHg 77%
    16:00 +12°C° 0.2 mm 3 mps 641 mmHg 76%
    17:00 +10°C° 0.4 mm 2 mps 640 mmHg 81%
    18:00 +9°C° 0.4 mm 2 mps 640 mmHg 86%
    19:00 +8°C° 0.4 mm 2 mps 639 mmHg 91%
    20:00 +7°C° 0 mm 2 mps 639 mmHg 93%
    21:00 +5°C° 0 mm 2 mps 639 mmHg 94%
    22:00 +4°C° 0 mm 2 mps 639 mmHg 95%
    23:00 +4°C° 0 mm 2 mps 639 mmHg 96%

    Tomorrow, 23 May, Thursday

    Time Temperature Precipitation Wind Pressure Humidity
    00:00 +4°C° 0 mm 2 mps 639 mmHg 96%
    01:00 +4°C° 0 mm 2 mps 639 mmHg 96%
    02:00 +4°C° 0 mm 2 mps 639 mmHg 97%
    03:00 +3°C° 0 mm 2 mps 639 mmHg 97%
    04:00 +3°C° 0 mm 2 mps 639 mmHg 97%
    05:00 +5°C° 0 mm 2 mps 639 mmHg 95%
    06:00 +6°C° 0 mm 2 mps 640 mmHg 93%
    07:00 +7°C° 0 mm 2 mps 640 mmHg 90%
    08:00 +9°C° 0.1 mm 2 mps 641 mmHg 86%
    09:00 +10°C° 0.1 mm 2 mps 641 mmHg 81%
    10:00 +12°C° 0.1 mm 2 mps 642 mmHg 77%
    11:00 +13°C° 0.4 mm 2 mps 642 mmHg 72%
    12:00 +15°C° 0.4 mm 2 mps 643 mmHg 67%
    13:00 +16°C° 0.4 mm 3 mps 643 mmHg 62%
    14:00 +16°C° 0.6 mm 3 mps 643 mmHg 62%
    15:00 +16°C° 0.6 mm 2 mps 643 mmHg 63%
    16:00 +16°C° 0.6 mm 2 mps 643 mmHg 64%
    17:00 +14°C° 0.3 mm 2 mps 642 mmHg 69%
    18:00 +12°C° 0.3 mm 1 mps 642 mmHg 75%
    19:00 +10°C° 0.3 mm 1 mps 642 mmHg 80%
    20:00 +9°C° 0 mm 1 mps 642 mmHg 83%
    21:00 +8°C° 0 mm 1 mps 642 mmHg 85%
    22:00 +5°C° 0 mm 0 mps 642 mmHg 87%
    23:00 +5°C° 0 mm 0 mps 642 mmHg 87%

    Day after tomorrow, 24 May, Friday

    Time Temperature Precipitation Wind Pressure Humidity
    00:00 +6°C° 0 mm 1 mps 642 mmHg 88%
    01:00 +6°C° 0 mm 1 mps 642 mmHg 88%
    02:00 +5°C° 0 mm 1 mps 642 mmHg 89%
    03:00 +5°C° 0 mm 1 mps 642 mmHg 90%
    04:00 +5°C° 0 mm 1 mps 642 mmHg 91%
    05:00 +7°C° 0 mm 1 mps 643 mmHg 86%
    06:00 +10°C° 0 mm 1 mps 644 mmHg 82%
    07:00 +11°C° 0 mm 0 mps 644 mmHg 77%
    08:00 +14°C° 0.2 mm 1 mps 645 mmHg 72%
    09:00 +16°C° 0.2 mm 1 mps 645 mmHg 67%
    10:00 +17°C° 0.2 mm 2 mps 646 mmHg 62%
    11:00 +17°C° 0.9 mm 2 mps 645 mmHg 67%
    12:00 +17°C° 0.9 mm 2 mps 645 mmHg 73%
    13:00 +16°C° 0.9 mm 3 mps 644 mmHg 78%
    14:00 +16°C° 0.8 mm 3 mps 644 mmHg 80%
    15:00 +15°C° 0.8 mm 2 mps 643 mmHg 82%
    16:00 +15°C° 0.8 mm 2 mps 643 mmHg 84%
    17:00 +14°C° 0.2 mm 2 mps 642 mmHg 88%
    18:00 +12°C° 0.2 mm 2 mps 642 mmHg 92%
    19:00 +11°C° 0.2 mm 1 mps 641 mmHg 96%
    20:00 +11°C° 1.1 mm 1 mps 641 mmHg 97%
    21:00 +10°C° 1.1 mm 1 mps 641 mmHg 97%
    22:00 +10°C° 1.1 mm 1 mps 641 mmHg 97%
    23:00 +9°C° 1 mm 1 mps 641 mmHg 97%

    25 May, Saturday

    Time Temperature Precipitation Wind Pressure Humidity
    00:00 +9°C° 1 mm 1 mps 641 mmHg 97%
    01:00 +9°C° 1 mm 1 mps 640 mmHg 97%
    02:00 +9°C° 0.8 mm 1 mps 640 mmHg 97%
    03:00 +8°C° 0.8 mm 1 mps 640 mmHg 97%
    04:00 +8°C° 0.8 mm 1 mps 640 mmHg 97%
    05:00 +9°C° 0.3 mm 1 mps 640 mmHg 94%
    06:00 +10°C° 0.3 mm 1 mps 641 mmHg 91%
    07:00 +11°C° 0.3 mm 1 mps 641 mmHg 88%
    08:00 +12°C° 0.8 mm 1 mps 641 mmHg 86%
    09:00 +13°C° 0.8 mm 1 mps 642 mmHg 83%
    10:00 +14°C° 0.8 mm 2 mps 642 mmHg 81%
    11:00 +13°C° 1.9 mm 1 mps 642 mmHg 84%
    12:00 +13°C° 1.9 mm 1 mps 641 mmHg 87%
    13:00 +12°C° 1.9 mm 1 mps 641 mmHg 90%
    14:00 +12°C° 1.7 mm 1 mps 641 mmHg 91%
    15:00 +11°C° 1.7 mm 0 mps 641 mmHg 92%
    16:00 +10°C° 1.7 mm 0 mps 641 mmHg 93%
    17:00 +10°C° 0.6 mm 0 mps 641 mmHg 94%
    18:00 +9°C° 0.6 mm 0 mps 641 mmHg 95%
    19:00 +9°C° 0.6 mm 0 mps 641 mmHg 96%
    20:00 +8°C° 0.3 mm 0 mps 641 mmHg 96%
    21:00 +9°C° 0.3 mm 1 mps 642 mmHg 96%
    22:00 +8°C° 0.3 mm 1 mps 642 mmHg 96%
    23:00 +8°C° 0 mm 1 mps 641 mmHg 96%

    26 May, Sunday

    Time Temperature Precipitation Wind Pressure Humidity
    00:00 +6°C° 0 mm 0 mps 641 mmHg 95%
    01:00 +6°C° 0 mm 0 mps 641 mmHg 95%
    02:00 +5°C° 0 mm 0 mps 641 mmHg 94%
    03:00 +5°C° 0 mm 0 mps 641 mmHg 94%
    04:00 +5°C° 0 mm 0 mps 641 mmHg 93%
    05:00 +7°C° 0 mm 0 mps 641 mmHg 90%
    06:00 +8°C° 0 mm 0 mps 642 mmHg 88%
    07:00 +10°C° 0 mm 0 mps 643 mmHg 85%
    08:00 +12°C° 0.3 mm 0 mps 643 mmHg 77%
    09:00 +14°C° 0.3 mm 1 mps 644 mmHg 70%
    10:00 +16°C° 0.3 mm 1 mps 644 mmHg 63%
    11:00 +16°C° 0.8 mm 1 mps 644 mmHg 66%
    12:00 +16°C° 0.8 mm 2 mps 644 mmHg 70%
    13:00 +15°C° 0.8 mm 2 mps 643 mmHg 74%
    14:00 +15°C° 0.8 mm 2 mps 643 mmHg 78%
    15:00 +14°C° 0.8 mm 2 mps 643 mmHg 81%
    16:00 +13°C° 0.8 mm 2 mps 642 mmHg 85%
    17:00 +12°C° 0.3 mm 2 mps 642 mmHg 88%
    18:00 +11°C° 0.3 mm 1 mps 642 mmHg 91%
    19:00 +11°C° 0.3 mm 1 mps 642 mmHg 93%
    20:00 +10°C° 0.1 mm 1 mps 643 mmHg 95%
    21:00 +9°C° 0.1 mm 1 mps 643 mmHg 96%
    22:00 +8°C° 0.1 mm 1 mps 643 mmHg 98%
    23:00 +8°C° 0.1 mm 1 mps 643 mmHg 98%

    27 May, Monday

    Time Temperature Precipitation Wind Pressure Humidity
    00:00 +8°C° 0.1 mm 1 mps 644 mmHg 98%
    01:00 +9°C° 0.1 mm 1 mps 644 mmHg 98%
    02:00 +8°C° 0.1 mm 1 mps 644 mmHg 98%
    03:00 +8°C° 0.1 mm 1 mps 644 mmHg 98%
    04:00 +8°C° 0.1 mm 1 mps 644 mmHg 98%
    05:00 +9°C° 0 mm 1 mps 645 mmHg 95%
    06:00 +9°C° 0 mm 1 mps 645 mmHg 93%
    07:00 +10°C° 0 mm 1 mps 646 mmHg 91%
    08:00 +11°C° 0 mm 1 mps 646 mmHg 83%
    09:00 +12°C° 0 mm 2 mps 646 mmHg 76%
    10:00 +13°C° 0 mm 2 mps 647 mmHg 68%
    11:00 +14°C° 0.1 mm 2 mps 647 mmHg 66%
    12:00 +14°C° 0.1 mm 2 mps 647 mmHg 63%
    13:00 +14°C° 0.1 mm 3 mps 647 mmHg 61%
    14:00 +14°C° 0.1 mm 3 mps 647 mmHg 61%
    15:00 +14°C° 0.1 mm 3 mps 646 mmHg 62%
    16:00 +14°C° 0.1 mm 3 mps 646 mmHg 62%
    17:00 +14°C° 0 mm 2 mps 646 mmHg 70%
    18:00 +13°C° 0 mm 2 mps 646 mmHg 78%
    19:00 +11°C° 0 mm 1 mps 646 mmHg 86%
    20:00 +10°C° 0 mm 1 mps 646 mmHg 90%
    21:00 +9°C° 0 mm 1 mps 645 mmHg 94%
    22:00 +7°C° 0 mm 1 mps 645 mmHg 98%
    23:00 +6°C° 0 mm 0 mps 645 mmHg 98%
    Show more